"Pseudo-MPEC" for P10Ny0A

Created 2019 May 21 8:07:19 UT using Find_Orb

Click here for an explanation of pseudo-MPECs

 
 Astrometry: 
     P10Ny0A  C2019 05 07tcIB0n3VkAstrometry#?16redacted;)!nQY:(DIclick#(yQbDF51
     P10Ny0A  C2019 05 07-\-0Y%ltppm[`P\T(;n0Wl44N3i%P3f2Awherek9V8g.Z;H0xVlmF51
     P10Ny0A  C2019 05 07$W%pkmDX\$for.pDAkAf^QXKWf+shoKexplanationDrHswrEqv'F51
     P10Ny0A  C2019 05 08.45226 15 27 27.03 +21 26 27.3    ~58BM 23.2 GVNEOCPV06
     P10Ny0A  C2019 05 08.45543 15 27 26.75 +21 26 27.0    ~58BM 21.8 GVNEOCPV06
     P10Ny0A  C2019 05 08.45860 15 27 26.47 +21 26 26.5    ~58BM 22.4 GVNEOCPV06
     P10Ny0A  C2019 05 08.46178 15 27 26.20 +21 26 26.4    ~58BM 22.6 GVNEOCPV06

Station data:
(F51) Pan-STARRS 1, Haleakala  (N20.707235 W156.255910)  US/Hawaii.
   Observers N. Primak, A. Schultz, S. Watters, J. Thiel, T. Goggia. Measurer
   PS1 Science Consortium. 1.8-m Ritchey-Chrétien + CCD.
(V06) Catalina Sky Survey-Kuiper  (N32.416847 W110.732550)  US/Arizona.
   Observers T. A. Pruyne, B. M. Africano, E. J. Christensen, G. A. Farneth,
   D. C. Fuls, A. R. Gibbs, A. D. Grauer, H. Groeller, J. A. Johnson, R. A.
   Kowalski, S. M. Larson, G. J. Leonard, R. L. Seaman, F. C. Shelly. 1.55-m
   reflector + CCD.

Orbital elements:  P10Ny0A
   Perihelion 2018 Mar 14.629354 +/- 348 TT = 15:06:16 (JD 2458192.129354)
Epoch 2019 May  8.0 TT = JDT 2458611.5   Earth MOID: 0.7213   AutoNEOCP
M 167.02941505 +/- 120              (J2000 ecliptic)
n   0.39828589 +/- 0.194            Peri.  305.33297 +/- 60
a   1.82952954 +/- 0.594            Node   108.67662 +/- 35
e   0.0923958 +/- 0.246             Incl.   22.49715 +/- 30
P   2.47/903.86d           H 19.9   G  0.15   U 11.6  SR
q 1.66048864 +/- 0.869    Q 1.99857045 +/- 24.5
From 7 observations 2019 May 7-8 (26.6 hr); mean residual 0".15
Residuals in arcseconds: 
190507 F51  .05-  .07+    190508 V06  .38+  .00     190508 V06  .30-  .11+    
190507 F51  .02+  .07+    190508 V06  .10+  .03+    
190507 F51  .03+  .14-    190508 V06  .17-  .13-    

Ephemerides (geocentric):
Date (UTC) HH   RA              Dec         delta   r     elong  mag " sig PA
---- -- -- --  -------------   -----------  ------ ------ -----  --- ---- ---
2019 05 21 08  15 10 27.601   +20 22 33.27  1.1243 1.9973 138.4 22.6 1625 136
2019 05 21 09  15 10 24.459   +20 22 12.59  1.1244 1.9973 138.4 22.6 1636 136
2019 05 21 10  15 10 21.319   +20 21 51.85  1.1245 1.9973 138.3 22.7 1647 136
2019 05 21 11  15 10 18.180   +20 21 31.07  1.1246 1.9973 138.3 22.7 1658 136
2019 05 21 12  15 10 15.043   +20 21 10.24  1.1247 1.9973 138.3 22.7 1669 136
2019 05 21 13  15 10 11.908   +20 20 49.35  1.1248 1.9973 138.3 22.7 1680 136
2019 05 21 14  15 10 08.775   +20 20 28.41  1.1249 1.9973 138.3 22.7 1692 136
2019 05 21 15  15 10 05.643   +20 20 07.43  1.1250 1.9973 138.3 22.7 1703 136
2019 05 21 16  15 10 02.514   +20 19 46.39  1.1251 1.9973 138.3 22.7 1715 136
2019 05 21 17  15 09 59.386   +20 19 25.30  1.1252 1.9974 138.2 22.7 1726 136
2019 05 21 18  15 09 56.259   +20 19 04.16  1.1253 1.9974 138.2 22.7 1737 136
2019 05 21 19  15 09 53.135   +20 18 42.97  1.1254 1.9974 138.2 22.7 1749 136
2019 05 21 20  15 09 50.012   +20 18 21.73  1.1255 1.9974 138.2 22.7 1761 136
2019 05 21 21  15 09 46.891   +20 18 00.44  1.1256 1.9974 138.2 22.7 1772 136
2019 05 21 22  15 09 43.772   +20 17 39.10  1.1258 1.9974 138.2 22.7 1784 136
2019 05 21 23  15 09 40.655   +20 17 17.71  1.1259 1.9974 138.1 22.7 1796 136
2019 05 22 00  15 09 37.539   +20 16 56.27  1.1260 1.9974 138.1 22.7 1807 136
2019 05 22 01  15 09 34.426   +20 16 34.78  1.1261 1.9974 138.1 22.7 1819 136
2019 05 22 02  15 09 31.314   +20 16 13.24  1.1262 1.9974 138.1 22.7 1831 135
2019 05 22 03  15 09 28.204   +20 15 51.64  1.1263 1.9974 138.1 22.7 1843 135
2019 05 22 04  15 09 25.096   +20 15 30.00  1.1264 1.9974 138.1 22.7 1855 135
2019 05 22 05  15 09 21.989   +20 15 08.30  1.1265 1.9974 138.1 22.7 1867 135
2019 05 22 06  15 09 18.885   +20 14 46.56  1.1266 1.9974 138.0 22.7 1879 135
2019 05 22 07  15 09 15.782   +20 14 24.77  1.1267 1.9974 138.0 22.7 1891 135
2019 05 22 08  15 09 12.682   +20 14 02.92  1.1269 1.9974 138.0 22.7 1903 135
2019 05 22 09  15 09 09.583   +20 13 41.03  1.1270 1.9974 138.0 22.7 1915 135
2019 05 22 10  15 09 06.486   +20 13 19.08  1.1271 1.9974 138.0 22.7 1927 135
2019 05 22 11  15 09 03.391   +20 12 57.09  1.1272 1.9974 138.0 22.7 1940 135
2019 05 22 12  15 09 00.297   +20 12 35.04  1.1273 1.9975 137.9 22.7 1952 135
2019 05 22 13  15 08 57.206   +20 12 12.95  1.1274 1.9975 137.9 22.7 1964 135
2019 05 22 14  15 08 54.117   +20 11 50.80  1.1275 1.9975 137.9 22.7 1977 135
2019 05 22 15  15 08 51.029   +20 11 28.61  1.1277 1.9975 137.9 22.7 1989 135
2019 05 22 16  15 08 47.943   +20 11 06.36  1.1278 1.9975 137.9 22.7 2002 135
2019 05 22 17  15 08 44.860   +20 10 44.07  1.1279 1.9975 137.9 22.7 2014 135
2019 05 22 18  15 08 41.778   +20 10 21.73  1.1280 1.9975 137.8 22.7 2027 135
2019 05 22 19  15 08 38.698   +20 09 59.33  1.1281 1.9975 137.8 22.7 2039 135
2019 05 22 20  15 08 35.620   +20 09 36.89  1.1282 1.9975 137.8 22.7 2052 135
2019 05 22 21  15 08 32.544   +20 09 14.39  1.1283 1.9975 137.8 22.7 2065 135
2019 05 22 22  15 08 29.470   +20 08 51.85  1.1285 1.9975 137.8 22.7 2077 135
2019 05 22 23  15 08 26.398   +20 08 29.26  1.1286 1.9975 137.8 22.7 2090 135
2019 05 23 00  15 08 23.328   +20 08 06.61  1.1287 1.9975 137.7 22.7 2103 135
2019 05 23 01  15 08 20.260   +20 07 43.92  1.1288 1.9975 137.7 22.7 2116 135
2019 05 23 02  15 08 17.194   +20 07 21.18  1.1289 1.9975 137.7 22.7 2129 135
2019 05 23 03  15 08 14.130   +20 06 58.39  1.1290 1.9975 137.7 22.7 2142 135
2019 05 23 04  15 08 11.067   +20 06 35.55  1.1292 1.9975 137.7 22.7 2155 135
2019 05 23 05  15 08 08.007   +20 06 12.65  1.1293 1.9975 137.7 22.7 2168 135
2019 05 23 06  15 08 04.949   +20 05 49.71  1.1294 1.9975 137.6 22.7 2181 135
2019 05 23 07  15 08 01.893   +20 05 26.73  1.1295 1.9975 137.6 22.7 2194 135